Tracking 22441 objects as of 1-Mar-2021
HD Live streaming from Space Station
objects crossing your sky now

SL-8 DEB

Track SL-8 DEB now!
10-day predictions


NORAD ID: 27768
Int'l Code: 2002-054D
Perigee: 664.4 km
Apogee: 714.3 km
Inclination: 98.3 °
Period: 98.4 minutes
Semi major axis: 7060 km
RCS: 0.0033 m2 (small)
Launch date: November 28, 2002
Source: Commonwealth of Independent States (former USSR) (CIS)
Launch site: PLESETSK MISSILE AND SPACE COMPLEX (PKMTR)

Note: This is SATELLITE DEBRIS
aabbcc
Your satellite tracking list
Your tracking list is empty




NASA's NSSDC Master Catalog

Two Line Element Set (TLE):
1 27768U 02054D   21059.90251258  .00000324  00000-0  71773-4 0  9998
2 27768  98.3443 229.4070 0035319 161.9127 198.3340 14.63395631971450
Source of the keplerian elements: AFSPC